Location: Unspecified
(0.0000°N, 0.0000°E)
Time: 02:12:59
(UTC+00:00)

ISS - Pass Details

Date: 23 May 2017
Orbit: 402 x 407 km, 51.6° (Epoch: 23 January)

Event Time Altitude Azimuth Distance (km) Brightness Sun altitude
Rises 18:55:24 0° 236° (SW) 2,366 0.6 -13.7°
Reaches altitude 10° 18:57:46 10° 250° (WSW) 1,503 -0.2 -14.2°
Maximum altitude 19:00:32 23° 306° (NW) 934 -1.1 -14.9°
Drops below altitude 10° 19:03:18 10° 1° (N) 1,502 -0.7 -15.5°
Sets 19:05:40 0° 16° (NNE) 2,365 0.1 -16.1°
